GFSNE_925_thetae_021.txt.gz
Theta_e
289 289 288 287 286 286 285 289 290 290 290 291 290 290 289 290 289 290 293 294 294 293 293 296 297 297 297 298 301 305 304 305 310 310 310 309 308 306
288 287 286 286 286 286 285 284 285 289 289 290 290 289 289 289 288 289 288 289 292 294 293 293 295 295 297 297 296 298 305 307 308 309 309 307 303 301
286 286 286 285 284 284 283 283 283 284 286 287 288 289 288 288 288 288 288 287 288 289 293 293 292 293 293 295 296 296 296 301 304 305 304 303 301 300
285 285 284 283 282 281 281 281 283 283 284 285 286 288 287 287 287 287 287 286 286 288 289 290 292 292 292 293 294 294 294 294 296 299 299 299 297 298
285 284 283 282 281 280 281 281 282 283 284 284 285 285 286 286 286 285 285 285 286 287 288 290 290 291 291 292 293 293 294 293 293 293 294 294 294 294
284 284 283 282 281 281 281 281 282 282 283 284 284 284 285 285 285 284 284 284 284 285 286 288 289 291 291 292 292 293 293 294 293 293 292 292 292 292
284 283 282 281 282 281 280 281 281 281 282 284 284 284 284 284 284 284 284 284 283 283 284 286 288 288 290 292 293 292 292 293 293 293 292 292 292 292
282 281 280 280 280 280 280 280 281 281 282 282 282 283 284 283 283 283 283 282 282 283 285 285 285 285 286 288 289 290 292 292 293 293 293 293 292 292
279 278 278 279 278 278 279 280 280 281 282 282 282 282 283 282 283 283 283 282 283 283 284 284 285 285 285 286 286 288 289 289 291 292 292 292 291 291
277 277 278 278 278 279 280 280 280 280 281 280 281 282 282 282 283 283 283 283 283 283 283 284 284 284 284 284 285 285 287 289 290 290 290 290 290 290
277 277 278 278 278 280 280 280 280 280 280 280 280 281 282 282 283 283 283 283 283 283 284 283 283 283 283 284 284 284 286 286 287 288 288 288 288 288
277 277 277 278 279 279 280 280 280 280 280 280 280 280 280 279 280 281 282 282 282 281 282 283 283 283 283 284 284 284 284 285 286 287 287 287 287 288
277 277 277 278 278 279 279 279 280 279 280 280 280 280 280 281 281 281 280 280 280 280 281 282 283 283 284 284 284 285 285 286 286 286 287 287 287 287
276 276 277 277 277 277 277 278 278 278 279 279 280 280 281 281 282 282 282 283 283 283 282 282 282 283 283 283 284 285 285 285 286 286 287 287 287 288
275 276 276 276 276 276 276 277 277 277 278 278 279 280 280 281 282 283 284 284 284 284 284 283 282 283 284 284 284 285 285 286 285 286 287 288 288 288
274 274 274 274 274 274 275 275 276 276 277 277 278 279 280 281 282 282 283 284 285 285 285 284 284 283 284 284 284 284 285 286 286 287 287 287 286 286
274 274 273 273 273 273 273 274 274 274 275 275 276 277 278 280 281 282 283 283 283 284 284 285 285 285 285 285 285 285 285 286 286 286 286 286 286 286
273 273 273 272 272 273 272 272 272 272 273 274 275 275 276 278 280 281 282 282 282 282 282 284 285 285 285 285 285 285 285 285 285 285 285 285 285 285
272 272 272 272 271 272 271 271 270 270 272 273 273 274 275 277 278 279 280 281 281 282 282 282 283 285 286 285 283 284 284 283 284 284 284 285 285 286
273 272 272 271 271 271 271 270 270 269 271 272 273 274 274 275 276 277 278 278 278 279 280 282 282 282 281 279 281 283 282 282 283 284 284 284 284 284
274 273 272 271 271 270 270 270 269 268 269 271 272 272 273 274 274 275 276 277 277 278 278 280 281 282 282 282 280 282 282 281 281 281 281 281 281 282
274 273 273 272 271 270 270 269 269 268 268 269 271 272 272 273 273 274 275 275 276 276 277 279 281 282 282 282 281 280 281 281 281 281 280 280 280 279
275 274 273 273 271 271 270 270 269 268 268 268 270 271 271 271 273 273 274 274 274 275 276 278 280 280 281 281 280 282 282 281 281 282 281 280 280 280

GFSNE_925_thetae_024.txt.gz
Theta_e
288 288 288 287 286 285 285 284 285 285 286 286 288 289 289 288 289 289 288 289 290 292 293 293 293 296 298 297 297 301 303 300 307 309 311 311 310 310
288 287 286 286 285 285 284 283 282 283 284 285 286 287 288 288 289 288 288 288 288 288 289 293 293 292 295 297 297 296 301 305 302 306 310 310 308 306
287 286 285 285 284 283 282 281 281 281 283 283 283 284 284 286 288 288 288 288 287 287 287 288 289 291 292 295 296 297 296 301 306 305 309 307 306 303
285 285 285 284 283 282 281 281 281 281 281 282 283 283 284 286 286 287 287 287 286 286 286 288 289 291 291 293 293 294 296 294 299 304 304 303 304 303
285 284 283 283 283 282 281 281 281 280 281 283 283 283 284 285 285 286 286 285 285 285 285 286 288 289 291 291 292 293 293 293 293 293 298 301 300 299
284 284 283 282 282 281 281 281 280 280 280 281 281 283 284 284 284 284 285 284 284 284 284 284 287 289 290 292 291 292 293 293 292 292 292 292 292 292
282 281 281 281 281 281 280 280 280 280 280 281 281 282 282 283 283 284 283 284 284 284 283 283 285 287 289 292 291 292 292 292 292 292 292 291 292 292
279 278 278 278 278 279 279 279 280 280 281 281 281 281 281 282 283 283 282 282 283 283 283 285 284 285 286 287 289 292 292 292 292 292 292 292 292 292
277 277 277 278 277 278 278 279 280 280 280 280 282 281 282 282 282 282 282 282 282 283 283 283 283 284 285 285 286 288 290 291 292 292 293 293 292 292
277 277 277 277 277 278 280 280 280 279 280 280 280 281 281 281 282 282 282 282 282 282 283 283 283 283 284 284 284 286 286 289 290 291 292 292 292 291
277 277 277 277 278 279 279 279 279 280 280 281 281 281 281 281 281 281 282 282 282 283 282 283 283 283 283 283 283 284 286 286 288 290 290 290 290 290
277 277 276 277 278 279 279 278 279 280 279 280 280 280 280 280 280 280 280 281 283 281 282 283 282 283 282 283 284 284 284 285 286 287 288 288 288 288
276 276 276 277 278 278 278 277 278 278 278 279 279 280 280 280 281 281 280 279 280 281 281 281 282 282 282 283 284 284 285 284 284 285 286 286 287 288
275 275 276 276 276 276 276 277 277 277 277 278 278 279 280 280 281 282 282 282 281 281 280 281 281 282 283 282 283 284 285 285 285 285 286 287 287 286
275 275 275 274 274 274 275 275 275 275 276 276 277 278 278 280 281 282 283 283 283 283 283 282 282 282 282 282 283 284 285 285 285 285 286 287 287 287
274 274 273 273 273 273 273 273 273 273 274 274 275 276 278 279 281 281 282 284 284 284 284 284 283 282 282 283 283 284 284 285 286 286 286 287 287 287
273 273 273 272 272 272 272 272 271 271 273 274 274 275 276 278 279 281 282 282 282 283 283 284 284 283 283 283 284 284 284 284 285 286 285 286 286 286
273 272 272 272 271 271 271 271 270 269 271 272 273 274 274 276 277 279 280 280 281 281 282 283 284 284 284 285 285 285 284 284 284 284 285 285 285 285
273 272 272 271 271 270 270 270 270 269 270 272 272 273 274 275 276 277 277 278 278 279 280 282 282 284 286 286 283 284 284 284 283 284 283 283 284 285
274 273 272 271 271 270 270 269 269 268 269 271 272 272 273 274 274 275 275 276 276 277 278 280 281 281 282 283 282 282 282 282 282 283 283 283 284 284
275 274 273 272 271 271 270 269 269 268 268 269 271 271 272 272 273 274 274 275 275 275 276 277 279 281 282 281 281 281 281 281 281 281 281 281 280 282
276 275 274 273 272 271 270 270 270 269 268 268 270 271 271 271 272 272 273 273 274 274 275 277 280 281 281 281 280 279 281 281 281 280 280 280 280 282
277 276 275 274 273 272 271 270 270 269 268 268 269 270 270 270 271 272 273 273 273 273 274 276 278 279 280 280 280 280 281 281 281 281 281 280 280 280

GFSNE_925_thetae_027.txt.gz
Theta_e
290 289 289 288 288 287 287 287 287 289 288 286 286 286 286 287 288 288 289 290 288 287 288 288 292 293 292 294 297 298 301 302 302 309 311 311 312 313
289 289 288 287 287 286 286 285 285 285 287 284 284 284 284 285 286 286 287 290 288 288 287 287 288 288 290 291 293 297 298 300 303 302 305 309 311 311
288 287 287 286 286 286 285 284 284 283 284 284 283 283 283 284 285 285 286 288 288 288 287 286 287 288 288 290 292 295 297 297 301 304 302 306 310 309
287 286 286 286 285 285 284 283 283 283 282 283 282 282 283 284 284 285 286 287 288 287 286 286 286 287 288 290 291 293 295 297 295 301 305 306 308 308
286 286 285 284 284 283 283 282 282 282 282 281 282 282 282 282 284 285 285 286 287 286 285 285 284 285 288 289 291 292 293 295 296 294 296 303 305 305
285 284 283 282 282 281 281 281 281 281 281 281 281 281 282 282 284 284 285 285 286 286 285 285 284 284 287 289 290 291 292 293 294 293 292 295 299 303
282 281 280 280 279 279 280 280 280 280 280 281 281 281 282 282 282 283 284 284 286 286 285 285 285 286 288 289 291 292 292 292 293 293 292 292 292 293
280 279 279 278 279 279 279 279 279 280 281 281 281 283 282 283 282 282 283 284 285 285 285 285 285 285 286 288 287 289 292 292 292 293 293 292 292 292
279 279 279 279 278 279 279 280 280 280 280 280 281 281 281 281 282 282 283 283 283 284 284 285 285 285 285 286 286 287 288 292 292 292 292 292 292 291
279 278 278 278 278 278 280 280 280 279 280 281 281 282 281 281 281 282 283 283 283 283 283 284 284 285 285 285 285 286 287 287 291 292 292 292 292 292
279 278 278 278 278 279 279 279 279 279 280 279 280 281 281 281 281 281 282 283 284 283 283 283 284 284 285 285 285 284 286 287 288 290 291 293 293 292
279 278 277 277 277 278 278 278 278 279 279 279 280 280 281 281 281 281 281 282 282 284 284 284 284 284 284 285 285 285 284 287 288 288 290 291 290 291
278 277 276 276 277 276 276 277 278 277 278 278 279 280 281 281 282 282 282 282 282 282 283 283 283 283 284 284 286 286 286 286 285 287 287 289 289 290
277 276 276 275 275 275 275 276 275 276 277 278 279 280 280 281 281 282 282 282 282 282 282 282 282 283 283 284 285 285 286 286 286 286 287 286 287 288
277 275 274 274 273 274 274 274 274 275 276 277 277 278 279 279 280 282 283 283 283 283 282 282 282 283 283 284 285 285 287 286 286 287 286 287 288 288
275 274 273 273 273 273 274 274 273 273 274 275 276 277 278 279 281 281 283 283 285 285 284 283 282 282 284 283 284 284 285 287 286 285 285 286 286 288
275 274 274 273 273 273 274 273 272 272 273 274 275 276 277 278 280 281 281 283 284 284 284 284 283 283 283 284 285 285 286 286 287 286 285 286 287 288
275 275 274 273 273 272 273 273 272 271 271 273 274 275 276 277 278 280 280 281 282 283 283 283 285 284 284 284 284 286 286 286 286 286 286 286 287 288
276 275 274 273 273 272 272 272 272 271 269 271 272 273 274 275 277 278 279 279 280 281 281 282 284 285 288 288 284 284 286 286 285 284 285 285 286 287
276 275 275 274 273 273 272 271 271 270 270 269 271 272 272 274 276 276 277 277 278 279 280 281 282 282 284 285 286 283 283 283 284 284 285 284 284 285
277 276 275 274 274 273 272 271 270 270 269 269 270 271 271 272 274 274 275 275 276 277 278 280 280 280 280 281 284 284 281 281 281 283 282 284 284 285
278 277 276 275 274 273 272 271 271 271 270 270 269 270 270 271 272 273 273 275 275 275 276 278 279 280 282 283 283 282 282 281 280 280 280 281 283 285
278 277 277 275 274 273 272 272 271 271 270 269 269 270 270 270 271 272 273 273 274 274 275 277 278 279 280 281 281 282 282 281 282 282 281 280 280 280

GFSNE_925_thetae_030.txt.gz
Theta_e
293 292 291 291 290 290 289 289 289 291 290 288 288 287 287 287 287 287 287 288 288 288 290 288 287 289 289 289 290 291 296 298 300 302 302 309 312 313
292 291 291 290 289 289 289 288 288 288 291 287 287 287 286 286 286 286 286 286 286 287 289 288 288 287 288 288 289 289 292 295 297 299 301 301 309 311
291 291 290 290 289 288 288 287 287 287 287 286 286 286 285 285 285 286 286 287 287 288 289 288 287 287 287 287 288 289 290 293 295 297 300 301 302 308
291 290 289 288 288 287 287 286 286 285 285 285 285 284 284 284 284 284 285 285 286 288 288 287 287 286 285 286 287 289 290 292 294 296 297 301 301 303
289 289 288 287 286 285 285 285 284 284 284 284 284 283 283 283 284 284 286 286 286 287 287 287 286 285 285 285 286 287 290 291 293 295 297 299 305 304
288 287 285 284 284 283 283 283 283 283 283 283 283 283 283 283 284 284 284 285 286 287 287 287 286 286 285 284 285 287 289 291 292 294 295 293 296 305
285 284 283 282 280 280 280 281 281 281 282 282 283 283 283 283 284 284 284 284 284 285 286 287 287 287 288 287 288 290 292 292 292 293 293 294 292 295
284 283 283 282 281 280 280 280 280 280 282 282 282 283 283 283 283 284 283 284 286 285 286 287 287 287 287 287 288 289 288 291 292 293 293 293 293 291
283 282 282 281 281 281 280 280 281 281 281 281 281 282 283 283 283 283 283 283 284 285 285 285 286 286 287 287 286 287 287 288 292 293 292 292 292 291
282 282 282 281 281 279 279 280 280 281 281 281 281 281 281 281 282 283 283 283 283 284 284 285 285 285 286 286 286 286 286 287 288 292 292 292 291 292
282 282 280 279 279 278 279 279 279 280 280 280 280 280 280 281 281 282 282 283 284 284 285 285 285 285 285 286 287 286 285 287 286 288 291 293 292 292
282 281 280 278 277 277 277 278 279 279 279 279 280 281 281 282 282 282 283 283 283 284 284 285 285 285 286 286 286 287 287 285 288 286 290 292 293 292
281 281 280 277 276 276 276 277 278 277 278 279 280 281 281 282 282 283 284 284 284 283 284 284 285 285 285 285 287 287 287 288 288 289 287 290 290 293
280 280 279 276 275 275 275 275 275 276 278 279 280 280 281 281 282 283 283 284 284 284 284 284 284 284 285 285 286 287 287 288 288 288 290 289 289 290
279 278 276 275 275 276 276 275 275 276 277 278 279 279 280 280 282 283 283 284 285 285 284 284 284 284 285 286 286 287 287 288 288 288 288 289 290 289
280 278 277 275 276 276 277 277 276 275 276 277 278 278 279 280 281 282 283 285 287 287 285 284 284 284 285 285 286 286 287 288 288 288 288 288 289 289
278 278 279 278 278 277 277 277 276 275 275 276 277 278 278 279 280 281 282 283 285 285 286 286 284 284 284 286 286 285 286 287 288 288 287 287 288 288
278 280 280 279 278 278 277 277 276 276 274 274 276 277 277 278 279 280 281 282 283 284 285 285 286 285 285 285 284 287 287 287 288 287 287 288 288 288
279 281 280 279 279 278 277 277 276 275 274 274 274 275 276 277 278 279 280 280 281 282 283 284 285 286 288 288 285 284 287 287 287 287 287 287 287 288
279 280 280 280 279 278 277 276 275 275 275 274 274 274 275 275 277 278 278 278 279 280 281 283 283 283 284 286 287 284 284 286 286 287 287 287 286 286
282 281 280 280 279 278 277 276 275 275 274 273 274 274 274 274 275 276 277 277 278 279 280 281 281 281 282 283 286 285 282 282 283 285 285 286 287 286
282 281 281 280 279 278 278 277 276 276 275 274 274 274 274 274 274 275 276 276 277 277 278 279 280 282 283 284 285 284 284 282 281 281 282 282 284 288
282 281 281 280 279 279 278 277 276 276 275 274 273 273 273 274 274 274 274 275 276 276 277 279 280 281 282 282 282 284 283 283 283 283 281 280 280 280

GFSNE_925_thetae_033.txt.gz
Theta_e
296 295 295 294 293 292 292 291 291 293 292 290 290 289 289 288 288 288 288 288 287 287 287 287 288 290 289 290 290 292 293 293 295 297 299 299 302 304
295 294 294 293 292 291 291 290 290 290 292 289 289 288 288 287 287 287 287 287 287 287 288 288 287 289 289 288 287 288 291 292 293 294 298 298 299 301
294 293 293 292 291 291 290 289 289 289 290 289 288 287 287 286 286 286 286 286 286 287 287 287 288 289 287 287 287 286 287 288 290 292 295 296 298 300
292 292 291 291 289 289 288 288 287 287 287 287 286 286 285 285 285 285 285 285 286 287 287 288 289 288 287 287 286 286 286 286 288 291 293 293 295 298
291 291 289 288 288 287 286 286 285 285 285 285 285 285 284 284 284 285 285 285 286 286 287 287 287 287 287 286 285 286 285 286 287 291 292 293 295 296
289 288 287 287 286 285 283 283 283 284 283 283 283 284 284 284 285 285 285 285 285 285 286 286 287 288 287 287 286 285 285 285 287 291 292 293 294 294
288 287 286 285 283 282 282 282 282 282 282 282 283 284 284 284 284 284 284 284 285 285 286 286 287 289 288 288 287 287 288 290 290 291 292 292 293 293
287 286 285 284 284 282 282 281 281 281 282 283 282 283 283 283 284 284 284 285 286 285 285 286 286 288 288 289 288 289 288 288 289 291 292 292 293 293
286 285 285 284 284 283 282 281 281 281 281 282 282 283 283 282 282 283 283 284 284 284 284 285 286 287 287 288 287 287 286 287 288 290 292 292 292 291
285 285 284 284 282 280 279 280 280 281 281 281 281 281 281 281 281 281 282 283 283 284 284 285 286 286 286 286 287 287 287 286 287 289 291 292 292 291
285 284 283 282 281 279 278 279 279 280 281 280 280 280 280 281 281 281 283 283 284 284 284 285 286 286 286 286 286 287 287 286 286 288 289 292 291 291
284 284 283 280 279 277 277 278 278 280 279 278 279 281 281 282 283 283 284 284 284 285 284 285 286 286 286 286 287 286 287 287 285 288 289 291 292 292
283 283 283 281 279 277 277 277 278 276 277 279 280 281 282 282 282 283 283 284 285 285 285 284 285 285 286 286 286 287 288 288 287 287 287 291 292 292
282 282 282 279 277 277 277 277 276 276 279 279 280 281 281 281 281 282 283 284 284 285 285 285 285 285 285 286 286 287 288 288 289 289 289 288 291 290
282 281 279 278 278 278 278 277 277 278 278 278 279 280 280 280 281 282 283 283 285 286 286 285 285 285 285 285 286 287 288 289 288 289 289 290 289 289
282 282 280 280 280 280 279 280 279 279 277 278 278 279 280 280 281 281 282 283 285 286 286 285 285 285 285 286 286 287 288 288 289 289 289 289 290 290
281 280 281 282 281 281 281 280 279 279 278 277 277 278 278 279 280 280 282 283 284 285 285 286 285 285 285 285 286 287 287 287 288 288 288 288 289 289
280 281 282 282 282 281 281 280 280 279 278 277 277 277 278 278 279 280 281 281 282 283 284 285 286 286 286 285 285 286 287 288 288 288 288 288 289 288
280 281 282 282 282 281 281 280 279 279 277 277 277 277 277 277 278 279 280 280 280 281 282 284 285 284 286 288 285 284 285 288 288 288 287 287 288 288
281 282 282 282 282 281 281 280 279 279 278 277 277 277 277 277 277 278 278 279 279 280 281 282 283 282 283 285 287 284 284 286 287 287 287 287 287 287
283 283 283 283 282 281 281 280 279 278 277 277 277 277 277 277 277 277 277 278 278 279 280 281 281 281 283 284 286 286 283 283 283 284 286 287 287 287
283 283 283 283 282 282 281 280 279 279 279 278 277 277 277 276 277 277 277 277 278 278 278 279 281 282 284 285 286 285 285 282 282 282 283 283 284 287
283 283 283 282 282 281 280 280 279 279 278 278 277 277 276 276 277 277 277 277 276 276 277 279 280 282 284 283 283 285 284 284 283 283 281 280 281 281

GFSNE_925_thetae_036.txt.gz
Theta_e
297 296 296 295 295 294 293 292 292 290 290 290 290 289 289 288 287 287 287 287 287 287 287 287 287 288 289 289 289 290 291 292 293 294 294 295 298 301
296 295 294 294 293 293 292 292 291 290 289 289 289 288 288 286 286 286 286 286 286 286 286 286 287 287 287 289 289 290 290 290 291 292 293 294 295 298
294 293 293 292 292 291 290 289 288 288 287 287 287 287 286 286 285 285 285 285 285 286 286 286 286 287 287 288 289 289 287 287 288 289 291 293 294 296
292 292 291 291 290 288 288 287 286 285 285 285 285 285 285 284 284 285 285 285 285 285 285 286 286 286 287 288 288 287 287 286 286 286 286 290 292 294
291 291 290 288 287 287 286 284 283 284 284 283 283 283 283 283 284 284 284 285 285 285 285 286 286 286 286 288 288 288 287 285 285 286 285 288 292 292
289 288 288 287 286 285 284 283 282 282 282 282 282 282 283 283 284 283 284 284 284 284 285 285 286 286 287 288 288 287 287 286 286 285 286 290 291 292
287 287 287 286 285 284 283 283 282 282 281 281 281 282 282 282 282 283 283 284 284 284 285 285 285 285 285 286 288 288 287 288 288 289 289 291 292 292
287 287 286 285 285 284 283 282 281 281 281 281 282 282 282 283 282 282 282 282 282 283 284 284 284 285 285 286 288 288 288 288 287 287 289 291 291 291
286 286 286 285 284 283 282 281 279 281 281 281 281 282 282 281 281 281 281 281 282 282 283 283 283 285 285 286 287 287 287 287 286 286 288 290 291 292
286 286 285 284 283 282 281 279 279 279 279 280 281 280 280 280 280 281 281 282 282 283 284 284 284 285 285 285 286 286 287 287 287 286 287 289 291 291
285 285 284 284 283 281 280 277 278 278 279 279 278 279 280 281 281 282 283 282 283 283 284 284 284 284 285 285 286 286 286 286 287 286 287 289 291 290
285 284 284 282 281 280 278 277 277 278 278 277 278 280 280 281 282 282 282 283 283 284 284 285 284 285 286 287 286 286 287 287 287 286 286 289 290 290
284 283 283 282 281 280 278 277 277 277 277 278 279 280 281 281 281 281 281 282 284 284 284 285 285 285 285 285 286 286 286 288 288 286 287 289 290 291
281 282 282 282 280 279 278 278 278 278 278 278 278 279 280 280 280 281 281 282 283 284 285 286 285 285 285 285 285 286 287 287 288 288 287 289 290 291
282 281 281 281 280 280 280 279 278 279 279 278 278 278 278 279 280 280 280 281 282 285 285 286 286 285 285 285 285 286 286 287 288 289 289 289 289 290
282 282 282 281 281 281 281 281 280 279 279 278 278 277 278 278 279 279 280 281 282 283 283 285 285 286 285 285 286 286 286 287 288 288 289 289 290 290
283 282 281 281 283 282 281 281 281 280 279 278 277 278 278 278 278 278 280 281 281 282 282 283 285 285 285 285 285 285 286 287 287 288 288 289 289 290
281 281 281 282 283 282 281 281 281 280 279 278 278 277 278 277 277 278 279 280 280 280 281 282 284 283 285 285 285 285 285 286 288 288 288 288 288 288
281 280 280 282 283 282 282 281 281 280 279 278 277 277 277 277 277 278 278 279 279 279 280 282 282 282 282 284 283 284 284 286 288 287 287 287 288 288
282 281 281 282 282 282 282 281 281 280 279 278 277 277 277 277 277 278 277 277 277 278 279 280 281 281 281 282 284 283 283 286 287 287 287 287 286 286
283 282 281 282 283 283 282 281 281 279 278 278 277 278 277 277 277 277 277 277 277 278 278 278 279 281 282 284 285 284 282 282 284 285 286 287 286 287
283 283 283 283 283 283 282 281 281 279 279 279 278 277 277 276 276 277 277 277 277 276 277 276 279 281 283 283 283 285 283 282 282 282 283 283 284 284
284 283 283 283 282 283 282 281 280 280 279 278 278 277 277 275 276 277 277 277 276 276 275 275 277 280 282 283 283 284 284 283 283 283 281 281 281 282

GFSNE_925_thetae_042.txt.gz
Theta_e
295 295 295 295 294 294 293 292 291 291 288 288 286 285 285 285 285 285 285 284 285 285 285 285 286 286 286 287 288 288 288 289 290 291 291 292 292 293
294 293 293 293 293 292 291 291 288 287 285 285 284 283 282 282 282 282 282 283 282 283 284 285 285 286 286 286 287 287 287 288 288 290 291 291 292 291
292 292 292 291 290 289 288 287 286 285 283 283 283 282 282 281 280 281 281 282 283 283 284 284 285 285 285 286 286 286 287 287 288 289 290 290 290 290
292 291 291 290 289 288 287 286 285 283 283 282 282 282 281 280 280 281 281 281 282 282 283 283 283 284 284 285 285 286 286 286 286 288 289 290 290 289
291 289 288 287 287 287 286 285 284 283 282 282 281 281 280 280 280 281 281 281 281 281 280 281 282 282 285 285 285 285 286 286 286 286 287 288 288 288
290 289 288 287 286 285 285 284 283 282 282 281 281 280 280 280 280 280 281 281 280 279 280 280 281 282 282 282 282 283 285 286 285 286 287 288 288 287
290 288 287 286 286 285 284 283 283 282 281 280 279 280 280 280 280 280 280 279 279 280 281 281 281 282 283 283 283 283 284 285 285 287 288 287 287 287
289 287 286 286 285 285 284 283 282 281 280 278 279 278 278 279 278 278 279 279 280 281 281 281 281 282 282 283 283 283 284 284 286 287 288 288 287 286
287 286 286 286 285 284 283 282 282 281 280 277 278 278 278 278 279 279 279 280 280 281 281 281 281 282 283 284 284 284 285 285 286 286 286 286 286 286
286 286 285 285 285 284 283 282 281 281 278 277 278 278 278 279 280 280 281 281 281 280 280 281 282 282 283 283 284 285 285 285 285 286 286 286 286 286
288 286 285 284 284 283 282 281 281 280 277 278 278 278 278 279 280 280 280 280 280 280 281 281 282 283 283 284 284 285 285 285 286 286 286 286 286 286
287 286 285 284 284 282 281 282 280 279 278 278 278 278 277 277 277 278 279 279 280 280 281 281 282 283 283 284 284 284 284 285 286 286 287 286 286 286
286 286 284 284 283 282 282 281 279 279 279 278 278 279 278 277 277 277 278 278 279 279 280 281 282 284 284 284 285 285 285 284 285 286 287 287 287 286
286 286 285 283 282 282 282 280 280 280 279 279 278 279 278 277 277 277 277 278 279 279 280 281 281 283 283 285 284 285 284 284 286 287 287 287 287 285
287 286 285 283 281 281 281 281 281 281 280 280 279 279 278 277 277 277 277 278 279 278 279 280 281 282 282 284 285 284 285 284 286 286 288 288 287 287
287 286 285 283 282 282 282 281 281 281 281 280 279 279 278 277 277 277 277 277 277 277 279 280 280 280 281 283 284 284 284 285 285 287 287 288 288 288
287 286 284 282 282 282 282 281 282 281 281 280 279 278 278 277 277 276 277 276 276 276 277 278 279 280 281 283 283 283 283 284 285 286 287 288 287 288
286 284 283 283 282 282 281 281 281 282 281 281 279 278 278 277 277 276 277 277 276 276 277 277 277 279 280 282 283 282 283 284 285 286 287 287 287 287
284 284 283 283 283 282 281 280 280 282 281 281 279 278 277 276 277 276 276 277 276 276 276 276 276 278 278 278 282 283 282 283 285 286 286 286 286 286
284 284 283 283 283 282 281 280 280 282 281 280 279 278 277 277 277 276 276 276 276 276 276 276 276 276 277 277 280 282 282 283 284 285 285 285 285 286
284 283 283 283 283 282 281 281 281 281 282 280 280 278 278 277 276 276 276 276 276 276 275 274 276 279 280 282 281 283 281 282 282 284 284 285 285 286
285 283 283 283 283 283 282 282 281 281 281 281 280 279 278 277 276 276 276 276 276 275 275 274 277 278 279 280 281 282 282 281 281 282 283 283 283 281
285 284 283 284 283 283 283 282 282 282 282 281 281 279 279 278 277 276 276 276 276 275 275 274 276 276 277 278 279 280 282 282 282 281 281 281 282 282

GFSNE_925_thetae_045.txt.gz
Theta_e
293 293 294 295 294 294 294 293 291 290 287 288 287 286 284 283 282 281 282 282 283 283 284 284 285 285 286 286 287 287 288 289 289 289 290 291 292 292
293 293 293 293 292 292 291 291 291 290 285 286 285 284 282 282 281 280 280 281 281 282 283 283 284 285 285 286 286 286 287 287 288 289 289 289 290 292
292 292 292 291 291 290 289 288 287 285 284 284 283 283 282 282 280 280 280 281 281 281 282 283 283 283 283 284 285 286 286 286 287 287 288 288 290 291
292 292 291 290 290 288 287 287 285 284 283 282 282 282 282 281 279 280 280 280 281 281 281 281 281 282 282 283 284 286 286 286 286 287 288 288 288 289
292 292 291 289 288 287 286 285 284 283 282 281 281 281 280 279 279 280 280 280 280 280 280 280 281 281 282 283 284 284 284 285 286 286 286 286 287 288
292 291 289 289 288 286 285 285 284 283 282 282 281 280 279 279 279 280 279 279 279 279 280 281 281 281 282 282 282 283 284 284 285 285 285 285 286 286
291 290 288 287 286 286 285 285 283 283 282 281 279 278 278 278 279 278 278 278 279 280 280 281 280 281 281 282 283 283 283 283 284 286 286 286 287 287
291 290 289 287 286 285 285 284 283 282 281 280 279 277 277 278 278 277 278 278 279 280 280 280 280 281 281 282 283 283 284 284 284 285 286 286 288 287
290 290 289 286 286 285 284 283 282 282 281 280 277 277 278 278 278 278 279 279 280 280 280 280 280 281 282 282 283 283 284 285 285 285 285 286 286 287
289 288 286 286 286 285 284 283 282 281 281 279 277 278 278 278 279 279 280 279 279 279 279 279 280 281 282 283 284 284 285 285 285 285 286 286 285 285
291 291 286 288 285 284 284 282 281 281 281 278 278 278 278 278 278 278 278 278 278 279 279 280 281 280 282 284 284 284 284 284 284 285 286 286 286 285
290 289 287 286 285 284 283 282 281 281 279 278 278 278 278 278 278 277 277 277 278 278 280 279 280 281 283 284 284 284 284 284 284 284 285 285 286 286
289 288 288 286 285 284 283 282 282 281 279 279 279 279 279 278 278 277 277 276 277 277 278 279 279 280 282 283 283 283 284 284 284 284 286 287 287 287
289 289 288 286 285 283 282 282 281 280 280 280 280 279 279 278 277 277 277 277 277 277 278 278 279 280 281 281 282 284 284 284 284 285 285 287 287 287
288 288 288 286 285 284 282 282 281 281 280 280 280 280 279 278 277 277 276 277 276 277 277 278 278 279 280 280 281 283 284 284 284 285 285 286 287 287
289 288 287 285 284 284 282 281 281 281 281 281 281 280 279 278 277 276 276 277 276 276 277 277 277 278 279 280 281 283 283 283 284 284 285 287 288 287
288 286 284 283 283 282 282 282 282 281 281 281 281 280 279 278 277 276 276 276 276 276 276 276 276 278 280 281 282 283 282 282 284 285 286 286 287 287
287 285 283 283 282 282 282 282 282 282 281 281 281 280 279 278 277 276 276 276 276 276 276 276 276 277 279 280 281 282 282 282 283 285 286 286 286 285
286 285 283 283 283 283 282 282 282 282 281 281 281 280 279 278 276 276 276 276 276 276 276 275 275 276 277 278 280 282 281 282 284 284 284 284 284 285
286 286 284 283 282 283 283 282 282 281 280 281 281 280 279 277 276 276 276 275 276 276 275 275 274 275 276 277 278 280 281 281 282 283 284 284 285 285
285 285 285 283 283 283 283 283 282 281 280 281 281 280 279 277 277 277 276 275 276 276 275 274 275 277 279 281 281 281 281 281 281 281 282 284 284 284
285 285 285 284 284 282 282 283 282 281 281 280 281 280 279 278 278 277 276 275 276 275 275 274 276 277 278 279 279 280 281 281 281 281 282 281 281 280
285 286 286 285 284 283 282 283 282 282 281 281 281 281 280 278 278 277 276 275 275 275 275 274 275 276 276 277 278 278 279 281 281 281 281 281 282 282

GFSNE_925_thetae_048.txt.gz
Theta_e
294 293 292 293 294 294 294 294 292 291 288 289 289 288 287 284 283 282 281 280 281 282 283 283 284 284 285 286 286 287 287 288 289 289 290 290 291 292
294 293 292 293 293 293 292 291 291 290 288 288 286 285 284 283 282 281 279 280 280 280 282 283 283 283 284 284 285 285 286 287 287 288 288 289 290 290
293 292 292 292 292 291 290 290 289 289 286 285 284 283 282 282 281 279 279 279 280 280 281 282 282 282 282 282 283 283 285 285 286 286 287 287 288 289
293 292 292 291 291 290 289 288 287 286 284 283 283 282 282 281 280 278 278 279 280 279 281 281 281 282 282 283 283 283 284 285 285 286 286 287 287 287
293 292 292 291 291 289 288 287 286 285 284 282 282 281 281 280 279 278 279 279 278 279 279 280 281 281 282 282 283 283 283 284 284 284 285 286 286 287
293 292 292 291 290 288 287 286 285 284 283 282 281 281 280 280 277 278 278 278 278 279 280 280 280 280 280 281 281 282 283 284 284 285 285 285 285 285
293 292 291 290 290 288 287 286 285 284 283 282 281 280 279 278 277 278 277 278 278 279 280 280 280 280 280 281 282 282 283 283 284 284 285 285 285 285
293 292 291 290 289 288 286 285 285 284 283 281 280 279 279 277 277 277 277 278 279 279 280 279 279 279 280 281 282 282 283 284 284 285 285 285 285 285
293 292 290 289 288 287 285 286 284 283 282 281 280 280 277 277 278 278 278 278 279 279 279 279 279 279 280 281 282 283 283 283 284 285 285 285 285 285
292 291 290 289 289 286 287 285 284 283 282 281 280 279 277 278 279 278 278 278 278 278 278 278 279 279 279 281 283 284 284 284 284 284 284 285 285 285
291 291 290 289 290 286 286 284 284 283 282 281 280 278 279 279 279 278 277 277 277 277 277 278 280 279 279 281 283 283 283 284 284 284 284 284 284 285
291 290 289 289 289 287 285 284 283 283 282 281 279 278 278 278 278 278 277 277 277 276 278 278 278 279 280 281 282 281 282 284 284 284 284 284 284 285
290 290 290 289 288 287 285 284 283 283 281 280 279 279 279 279 279 278 277 277 276 276 277 277 278 278 279 280 280 280 281 282 283 284 284 285 285 285
290 290 289 289 288 287 286 285 283 282 281 280 279 279 280 280 279 278 277 276 276 276 276 276 277 278 278 279 280 280 281 283 283 284 284 284 285 286
289 289 289 288 287 286 285 284 283 281 281 281 280 280 280 280 279 278 277 276 276 276 276 276 276 277 278 278 279 280 281 283 283 284 284 285 285 286
287 288 288 288 287 285 285 284 282 282 282 281 280 280 280 280 279 278 277 276 276 276 276 276 276 276 277 277 279 280 283 283 282 283 284 286 286 286
288 287 286 285 284 284 283 283 283 282 282 281 281 280 281 280 279 278 276 276 276 275 275 276 276 277 278 278 278 281 282 282 282 283 284 285 285 286
286 286 285 284 283 283 282 282 282 282 282 282 281 280 281 280 279 278 276 276 275 276 276 275 275 276 278 280 280 281 281 281 282 284 284 284 285 285
286 286 285 284 283 282 282 282 281 282 283 282 282 280 281 280 278 277 276 276 275 275 276 275 274 275 277 278 279 280 280 281 281 283 283 283 283 285
286 286 286 285 284 283 282 282 282 282 283 282 281 280 281 280 278 277 276 276 275 275 275 275 274 274 276 277 278 280 281 280 280 281 281 283 284 284
284 284 285 285 285 284 283 282 281 282 283 282 280 280 281 279 278 277 276 276 275 275 275 275 274 276 277 278 279 280 281 281 280 280 280 280 282 283
283 283 283 284 284 284 283 282 281 281 282 281 280 280 281 279 279 278 277 276 275 275 275 275 275 276 276 278 279 279 279 281 281 281 281 281 281 282
273 276 280 284 284 284 284 282 281 281 282 281 280 280 280 279 279 278 277 276 275 275 275 274 274 275 275 276 277 278 278 279 280 280 280 281 281 281